| time (UTC) | temp F | wind direction | speed knots | gust knots | rain 1hr in | rain 24hr in | rain mn in | humidity % | barometer mb |
| 20260507112418 | 55 | 64 | 0.0 | 0.0 | 0.00 | 0.00 | 0.00 | 82 | 1019.5 |
| 20260507111915 | 55 | 64 | 0.0 | 0.0 | 0.00 | 0.00 | 0.00 | 82 | 1019.5 |
| 20260507111413 | 55 | 64 | 0.0 | 0.0 | 0.00 | 0.00 | 0.00 | 82 | 1019.7 |
| 20260507110909 | 55 | 64 | 0.0 | 0.0 | 0.00 | 0.00 | 0.00 | 82 | 1019.8 |
| 20260507110405 | 55 | 65 | 0.0 | 0.0 | 0.00 | 0.00 | 0.00 | 82 | 1019.8 |
| 20260507105902 | 56 | 64 | 0.0 | 0.0 | 0.00 | 0.00 | 0.00 | 82 | 1019.8 |
| 20260507105358 | 56 | 64 | 0.0 | 0.0 | 0.00 | 0.00 | 0.00 | 81 | 1019.7 |
| 20260507104855 | 56 | 64 | 0.0 | 0.0 | 0.00 | 0.00 | 0.00 | 81 | 1019.8 |
| 20260507104352 | 56 | 294 | 0.0 | 0.0 | 0.00 | 0.00 | 0.00 | 82 | 1019.8 |
| 20260507103848 | 56 | 294 | 0.0 | 0.0 | 0.00 | 0.00 | 0.00 | 82 | 1019.8 |
| 20260507103344 | 56 | 294 | 0.0 | 0.0 | 0.00 | 0.00 | 0.00 | 82 | 1020.3 |
| 20260507102841 | 56 | 294 | 0.0 | 0.0 | 0.00 | 0.00 | 0.00 | 82 | 1020.0 |
| 20260507102337 | 56 | 294 | 0.0 | 0.0 | 0.00 | 0.00 | 0.00 | 82 | 1020.0 |
| 20260507101833 | 56 | 294 | 0.0 | 0.0 | 0.00 | 0.00 | 0.00 | 82 | 1020.1 |
| 20260507101328 | 56 | 293 | 0.0 | 0.0 | 0.00 | 0.00 | 0.00 | 81 | 1020.1 |
| 20260507100826 | 56 | 293 | 0.0 | 0.0 | 0.00 | 0.00 | 0.00 | 81 | 1020.1 |
| 20260507100324 | 56 | 293 | 0.0 | 0.0 | 0.00 | 0.00 | 0.00 | 80 | 1020.1 |
| 20260507095821 | 57 | 294 | 0.0 | 0.0 | 0.00 | 0.00 | 0.00 | 80 | 1020.1 |
| 20260507095317 | 57 | 294 | 0.0 | 0.0 | 0.00 | 0.00 | 0.00 | 80 | 1020.1 |
| 20260507094815 | 57 | 293 | 0.0 | 0.0 | 0.00 | 0.00 | 0.00 | 80 | 1020.2 |
| 20260507094311 | 56 | 294 | 0.0 | 0.0 | 0.00 | 0.00 | 0.00 | 80 | 1020.2 |
| 20260507093808 | 56 | 293 | 0.0 | 0.0 | 0.00 | 0.00 | 0.00 | 80 | 1020.4 |
| 20260507093307 | 57 | 293 | 0.0 | 0.0 | 0.00 | 0.00 | 0.00 | 80 | 1020.3 |
| 20260507092804 | 57 | 293 | 0.0 | 0.0 | 0.00 | 0.00 | 0.00 | 79 | 1020.3 |
| 20260507092300 | 57 | 292 | 0.0 | 0.0 | 0.00 | 0.00 | 0.00 | 79 | 1020.2 |
| 20260507091757 | 57 | 287 | 0.0 | 0.0 | 0.00 | 0.00 | 0.00 | 79 | 1020.5 |
| 20260507091253 | 57 | 292 | 0.0 | 0.0 | 0.00 | 0.00 | 0.00 | 79 | 1020.4 |
| 20260507090748 | 57 | 289 | 0.0 | 0.0 | 0.00 | 0.00 | 0.00 | 79 | 1020.6 |
| 20260507090245 | 57 | 288 | 0.0 | 0.0 | 0.00 | 0.00 | 0.00 | 80 | 1020.4 |
| 20260507085742 | 57 | 287 | 0.0 | 0.0 | 0.00 | 0.00 | 0.00 | 80 | 1020.6 |
| 20260507085239 | 57 | 280 | 0.0 | 0.0 | 0.00 | 0.00 | 0.00 | 80 | 1020.8 |
| 20260507084736 | 57 | 282 | 0.0 | 0.0 | 0.00 | 0.00 | 0.00 | 80 | 1020.8 |
| 20260507084232 | 57 | 282 | 0.0 | 0.0 | 0.00 | 0.00 | 0.00 | 80 | 1020.7 |
| 20260507083730 | 57 | 283 | 0.0 | 0.0 | 0.00 | 0.00 | 0.00 | 79 | 1020.7 |
| 20260507083226 | 57 | 277 | 0.0 | 0.0 | 0.00 | 0.00 | 0.00 | 80 | 1020.8 |
| 20260507082722 | 57 | 276 | 0.0 | 0.0 | 0.00 | 0.00 | 0.00 | 79 | 1020.6 |
| 20260507082218 | 57 | 276 | 0.0 | 0.0 | 0.00 | 0.00 | 0.00 | 79 | 1020.8 |
| 20260507081715 | 57 | 283 | 0.0 | 0.0 | 0.00 | 0.00 | 0.00 | 79 | 1020.7 |
| 20260507081211 | 57 | 285 | 0.0 | 0.0 | 0.00 | 0.00 | 0.00 | 79 | 1020.7 |
| 20260507080708 | 57 | 284 | 0.0 | 0.0 | 0.00 | 0.00 | 0.00 | 79 | 1020.7 |
| 20260507080204 | 58 | 285 | 0.0 | 0.0 | 0.00 | 0.00 | 0.00 | 78 | 1020.6 |
| 20260507075700 | 58 | 283 | 0.0 | 0.0 | 0.00 | 0.00 | 0.00 | 78 | 1020.7 |
| 20260507075156 | 58 | 277 | 0.0 | 0.0 | 0.00 | 0.00 | 0.00 | 78 | 1020.7 |
| 20260507074652 | 58 | 281 | 0.0 | 0.0 | 0.00 | 0.00 | 0.00 | 78 | 1020.8 |
| 20260507074151 | 58 | 303 | 0.0 | 0.0 | 0.00 | 0.00 | 0.00 | 78 | 1020.8 |
| 20260507073647 | 58 | 301 | 0.0 | 0.0 | 0.00 | 0.00 | 0.00 | 78 | 1020.8 |
| 20260507073143 | 58 | 299 | 0.0 | 0.0 | 0.00 | 0.00 | 0.00 | 77 | 1020.8 |
| 20260507072642 | 58 | 297 | 0.0 | 0.0 | 0.00 | 0.00 | 0.00 | 77 | 1021.2 |
| 20260507072138 | 58 | 291 | 0.0 | 0.0 | 0.00 | 0.00 | 0.00 | 77 | 1020.9 |
| 20260507071636 | 58 | 291 | 0.0 | 0.0 | 0.00 | 0.00 | 0.00 | 77 | 1021.1 |
| 20260507071132 | 58 | 274 | 0.0 | 0.0 | 0.00 | 0.00 | 0.00 | 77 | 1021.1 |
| 20260507070629 | 58 | 275 | 0.0 | 0.0 | 0.00 | 0.00 | 0.00 | 77 | 1021.2 |
| 20260507070126 | 58 | 275 | 0.0 | 0.0 | 0.00 | 0.00 | 0.00 | 77 | 1020.9 |
| 20260507065622 | 58 | 275 | 0.0 | 0.0 | 0.00 | 0.00 | 0.00 | 77 | 1021.2 |
| 20260507065119 | 59 | 274 | 0.0 | 0.0 | 0.00 | 0.00 | 0.00 | 76 | 1021.3 |
| 20260507064617 | 59 | 274 | 0.0 | 0.9 | 0.00 | 0.00 | 0.00 | 76 | 1021.3 |
| 20260507064116 | 59 | 292 | 1.7 | 2.6 | 0.00 | 0.00 | 0.00 | 76 | 1021.2 |
| 20260507063613 | 59 | 303 | 0.0 | 0.0 | 0.00 | 0.00 | 0.00 | 76 | 1021.3 |
| 20260507063110 | 59 | 310 | 4.3 | 5.2 | 0.00 | 0.00 | 0.00 | 76 | 1021.3 |
| 20260507062606 | 59 | 312 | 1.7 | 2.6 | 0.00 | 0.00 | 0.00 | 76 | 1021.4 |
| 20260507062104 | 59 | 327 | 1.7 | 2.6 | 0.00 | 0.00 | 0.00 | 76 | 1021.3 |
| 20260507061601 | 59 | 302 | 0.9 | 1.7 | 0.00 | 0.00 | 0.00 | 76 | 1021.1 |
| 20260507061100 | 59 | 308 | 0.0 | 0.0 | 0.00 | 0.00 | 0.00 | 76 | 1021.2 |
| 20260507060557 | 59 | 302 | 3.5 | 5.2 | 0.00 | 0.00 | 0.00 | 76 | 1021.2 |
| 20260507060053 | 59 | 329 | 1.7 | 1.7 | 0.00 | 0.00 | 0.00 | 76 | 1021.2 |
| 20260507055548 | 59 | 309 | 0.0 | 0.0 | 0.00 | 0.00 | 0.00 | 76 | 1021.2 |
| 20260507055045 | 59 | 302 | 0.0 | 0.0 | 0.00 | 0.00 | 0.00 | 76 | 1021.1 |
| 20260507054541 | 59 | 317 | 0.0 | 0.0 | 0.00 | 0.00 | 0.00 | 76 | 1021.4 |
| 20260507054038 | 59 | 320 | 0.0 | 0.0 | 0.00 | 0.00 | 0.00 | 76 | 1021.3 |
| 20260507053536 | 59 | 311 | 0.0 | 0.0 | 0.00 | 0.00 | 0.00 | 75 | 1021.1 |
| 20260507053035 | 59 | 313 | 0.0 | 0.0 | 0.00 | 0.00 | 0.00 | 75 | 1021.2 |
| 20260507052532 | 60 | 311 | 0.0 | 0.0 | 0.00 | 0.00 | 0.00 | 75 | 1021.2 |
| 20260507052028 | 60 | 321 | 0.0 | 0.0 | 0.00 | 0.00 | 0.00 | 75 | 1021.3 |
| 20260507051527 | 60 | 319 | 0.0 | 0.0 | 0.00 | 0.00 | 0.00 | 74 | 1021.3 |
| 20260507051023 | 60 | 329 | 0.0 | 0.0 | 0.00 | 0.00 | 0.00 | 74 | 1021.2 |
| 20260507050519 | 60 | 298 | 0.0 | 0.0 | 0.00 | 0.00 | 0.00 | 74 | 1021.2 |
| 20260507050016 | 60 | 308 | 0.0 | 0.0 | 0.00 | 0.00 | 0.00 | 73 | 1021.2 |
| 20260507045513 | 61 | 303 | 0.0 | 0.0 | 0.00 | 0.00 | 0.00 | 73 | 1021.3 |
| 20260507045010 | 61 | 305 | 1.7 | 2.6 | 0.00 | 0.00 | 0.00 | 73 | 1021.3 |
| 20260507044506 | 61 | 283 | 4.3 | 5.2 | 0.00 | 0.00 | 0.00 | 72 | 1021.3 |
| 20260507044003 | 61 | 296 | 0.0 | 0.0 | 0.00 | 0.00 | 0.00 | 72 | 1021.1 |
| 20260507043459 | 61 | 293 | 3.5 | 4.3 | 0.00 | 0.00 | 0.00 | 72 | 1020.9 |
| 20260507042955 | 62 | 302 | 3.5 | 4.3 | 0.00 | 0.00 | 0.00 | 71 | 1020.9 |
| 20260507042453 | 62 | 270 | 2.6 | 2.6 | 0.00 | 0.00 | 0.00 | 71 | 1020.9 |
| 20260507041948 | 62 | 275 | 3.5 | 5.2 | 0.00 | 0.00 | 0.00 | 71 | 1020.8 |
| 20260507041445 | 62 | 270 | 2.6 | 5.2 | 0.00 | 0.00 | 0.00 | 70 | 1020.8 |
| 20260507040942 | 62 | 288 | 5.2 | 7.0 | 0.00 | 0.00 | 0.00 | 70 | 1020.8 |
| 20260507040438 | 62 | 293 | 3.5 | 5.2 | 0.00 | 0.00 | 0.00 | 70 | 1020.4 |
| 20260507035934 | 63 | 280 | 5.2 | 6.1 | 0.00 | 0.00 | 0.00 | 69 | 1020.8 |
| 20260507035431 | 63 | 275 | 4.3 | 5.2 | 0.00 | 0.00 | 0.00 | 69 | 1020.5 |
| 20260507034927 | 63 | 304 | 4.3 | 5.2 | 0.00 | 0.00 | 0.00 | 68 | 1020.4 |
| 20260507034424 | 63 | 291 | 4.3 | 7.0 | 0.00 | 0.00 | 0.00 | 68 | 1020.3 |
| 20260507033922 | 64 | 307 | 6.1 | 7.0 | 0.00 | 0.00 | 0.00 | 68 | 1020.6 |
| 20260507033420 | 64 | 297 | 5.2 | 6.1 | 0.00 | 0.00 | 0.00 | 67 | 1020.1 |
| 20260507032917 | 64 | 286 | 3.5 | 5.2 | 0.00 | 0.00 | 0.00 | 67 | 1020.2 |
| 20260507032414 | 64 | 302 | 3.5 | 4.3 | 0.00 | 0.00 | 0.00 | 66 | 1020.2 |
| 20260507031909 | 64 | 300 | 5.2 | 7.0 | 0.00 | 0.00 | 0.00 | 66 | 1020.3 |
| 20260507031406 | 64 | 274 | 7.8 | 9.6 | 0.00 | 0.00 | 0.00 | 65 | 1020.1 |
| 20260507030903 | 65 | 294 | 5.2 | 7.0 | 0.00 | 0.00 | 0.00 | 65 | 1020.3 |
| 20260507030400 | 65 | 311 | 3.5 | 5.2 | 0.00 | 0.00 | 0.00 | 65 | 1020.5 |
| 20260507025857 | 65 | 290 | 4.3 | 6.1 | 0.00 | 0.00 | 0.00 | 64 | 1020.0 |
| 20260507025355 | 65 | 287 | 3.5 | 4.3 | 0.00 | 0.00 | 0.00 | 63 | 1020.0 |
| 20260507024852 | 66 | 324 | 3.5 | 5.2 | 0.00 | 0.00 | 0.00 | 63 | 1019.8 |
| 20260507024350 | 66 | 292 | 4.3 | 6.1 | 0.00 | 0.00 | 0.00 | 62 | 1019.9 |
| 20260507023845 | 66 | 285 | 6.1 | 9.6 | 0.00 | 0.00 | 0.00 | 62 | 1019.8 |
| 20260507023342 | 67 | 288 | 4.3 | 6.1 | 0.00 | 0.00 | 0.00 | 62 | 1020.0 |
| 20260507022840 | 67 | 297 | 7.8 | 9.6 | 0.00 | 0.00 | 0.00 | 61 | 1019.6 |
| 20260507022336 | 67 | 289 | 4.3 | 6.1 | 0.00 | 0.00 | 0.00 | 61 | 1019.6 |
| 20260507021832 | 68 | 318 | 9.6 | 12.2 | 0.00 | 0.00 | 0.00 | 60 | 1019.9 |
| 20260507021327 | 68 | 283 | 7.0 | 9.6 | 0.00 | 0.00 | 0.00 | 60 | 1019.6 |
| 20260507020825 | 69 | 290 | 8.7 | 13.9 | 0.00 | 0.00 | 0.00 | 59 | 1019.6 |
| 20260507020322 | 69 | 316 | 5.2 | 8.7 | 0.00 | 0.00 | 0.00 | 59 | 1019.3 |
| 20260507015819 | 69 | 276 | 7.8 | 8.7 | 0.00 | 0.00 | 0.00 | 58 | 1019.4 |
| 20260507015317 | 69 | 275 | 4.3 | 6.1 | 0.00 | 0.00 | 0.00 | 58 | 1019.5 |
| 20260507014814 | 70 | 293 | 8.7 | 11.3 | 0.00 | 0.00 | 0.00 | 56 | 1019.4 |
| 20260507014310 | 70 | 282 | 3.5 | 5.2 | 0.00 | 0.00 | 0.00 | 56 | 1019.4 |
| 20260507013806 | 71 | 300 | 3.5 | 7.8 | 0.00 | 0.00 | 0.00 | 55 | 1019.3 |
| 20260507013304 | 71 | 306 | 5.2 | 7.8 | 0.00 | 0.00 | 0.00 | 55 | 1019.3 |
| 20260507012801 | 71 | 275 | 7.0 | 7.8 | 0.00 | 0.00 | 0.00 | 54 | 1019.2 |
| 20260507012257 | 71 | 294 | 5.2 | 7.8 | 0.00 | 0.00 | 0.00 | 53 | 1019.5 |
| 20260507011754 | 71 | 280 | 7.8 | 11.3 | 0.00 | 0.00 | 0.00 | 54 | 1018.9 |
| 20260507011251 | 72 | 254 | 5.2 | 7.8 | 0.00 | 0.00 | 0.00 | 53 | 1019.4 |
| 20260507010750 | 72 | 330 | 3.5 | 5.2 | 0.00 | 0.00 | 0.00 | 53 | 1019.2 |
| 20260507010247 | 72 | 323 | 4.3 | 6.1 | 0.00 | 0.00 | 0.00 | 52 | 1019.2 |
| 20260507005744 | 72 | 247 | 4.3 | 7.0 | 0.00 | 0.00 | 0.00 | 52 | 1019.0 |
| 20260507005241 | 72 | 297 | 7.0 | 8.7 | 0.00 | 0.00 | 0.00 | 52 | 1019.0 |
| 20260507004737 | 73 | 297 | 7.0 | 8.7 | 0.00 | 0.00 | 0.00 | 52 | 1018.9 |
| 20260507004235 | 73 | 277 | 7.0 | 9.6 | 0.00 | 0.00 | 0.00 | 51 | 1018.9 |
| 20260507003731 | 73 | 309 | 5.2 | 7.8 | 0.00 | 0.00 | 0.00 | 51 | 1018.9 |
| 20260507003226 | 73 | 286 | 5.2 | 7.8 | 0.00 | 0.00 | 0.00 | 50 | 1019.0 |
| 20260507002722 | 73 | 280 | 4.3 | 5.2 | 0.00 | 0.00 | 0.00 | 51 | 1019.2 |
| 20260507002219 | 73 | 325 | 5.2 | 8.7 | 0.00 | 0.00 | 0.00 | 50 | 1018.9 |
| 20260507001716 | 73 | 299 | 4.3 | 6.1 | 0.00 | 0.00 | 0.00 | 50 | 1018.6 |
| 20260507001213 | 74 | 272 | 7.0 | 8.7 | 0.00 | 0.00 | 0.00 | 50 | 1018.6 |
| 20260507000709 | 74 | 314 | 4.3 | 7.8 | 0.00 | 0.00 | 0.00 | 50 | 1018.5 |
| 20260507000205 | 74 | 279 | 9.6 | 11.3 | 0.00 | 0.00 | 0.00 | 50 | 1019.0 |
| 20260506235702 | 75 | 282 | 7.8 | 11.3 | 0.00 | 0.00 | 0.00 | 48 | 1018.5 |
| 20260506235157 | 75 | 308 | 3.5 | 5.2 | 0.00 | 0.00 | 0.00 | 47 | 1018.5 |
| 20260506234654 | 73 | 263 | 7.8 | 8.7 | 0.00 | 0.00 | 0.00 | 49 | 1018.9 |
| 20260506234151 | 74 | 300 | 7.0 | 7.8 | 0.00 | 0.00 | 0.00 | 50 | 1018.7 |
| 20260506233649 | 75 | 332 | 3.5 | 4.3 | 0.00 | 0.00 | 0.00 | 47 | 1018.4 |
| 20260506233145 | 74 | 15 | 6.1 | 7.8 | 0.00 | 0.00 | 0.00 | 49 | 1018.5 |
| 20260506232642 | 74 | 322 | 6.1 | 7.0 | 0.00 | 0.00 | 0.00 | 48 | 1018.6 |
| 20260506232137 | 75 | 303 | 9.6 | 11.3 | 0.00 | 0.00 | 0.00 | 46 | 1018.8 |
| 20260506231634 | 75 | 286 | 0.0 | 0.0 | 0.00 | 0.00 | 0.00 | 47 | 1018.6 |
| 20260506231133 | 75 | 294 | 5.2 | 7.8 | 0.00 | 0.00 | 0.00 | 47 | 1018.8 |
| 20260506230630 | 75 | 301 | 7.8 | 9.6 | 0.00 | 0.00 | 0.00 | 46 | 1018.8 |
| 20260506230126 | 75 | 281 | 4.3 | 7.0 | 0.00 | 0.00 | 0.00 | 45 | 1018.8 |
| 20260506225623 | 75 | 295 | 7.8 | 8.7 | 0.00 | 0.00 | 0.00 | 47 | 1019.0 |
| 20260506225119 | 75 | 299 | 4.3 | 6.1 | 0.00 | 0.00 | 0.00 | 46 | 1019.0 |
| 20260506224616 | 74 | 234 | 1.7 | 1.7 | 0.00 | 0.00 | 0.00 | 46 | 1018.9 |
| 20260506224113 | 75 | 309 | 5.2 | 7.0 | 0.00 | 0.00 | 0.00 | 46 | 1018.9 |
| 20260506223609 | 74 | 286 | 1.7 | 2.6 | 0.00 | 0.00 | 0.00 | 46 | 1019.0 |
| 20260506223105 | 74 | 340 | 3.5 | 4.3 | 0.00 | 0.00 | 0.00 | 46 | 1019.0 |
| 20260506222602 | 74 | 223 | 7.0 | 7.8 | 0.00 | 0.00 | 0.00 | 45 | 1018.9 |
| 20260506222058 | 73 | 279 | 1.7 | 2.6 | 0.00 | 0.00 | 0.00 | 46 | 1019.0 |
| 20260506221556 | 73 | 285 | 6.1 | 9.6 | 0.00 | 0.00 | 0.00 | 45 | 1019.3 |
| 20260506221054 | 73 | 284 | 4.3 | 7.0 | 0.00 | 0.00 | 0.00 | 45 | 1019.4 |
| 20260506220550 | 73 | 240 | 2.6 | 5.2 | 0.00 | 0.00 | 0.00 | 46 | 1019.3 |
| 20260506220045 | 73 | 13 | 6.1 | 7.0 | 0.00 | 0.00 | 0.00 | 46 | 1019.4 |
| 20260506215542 | 73 | 298 | 2.6 | 2.6 | 0.00 | 0.00 | 0.00 | 44 | 1019.4 |
| 20260506215038 | 73 | 292 | 4.3 | 7.0 | 0.00 | 0.00 | 0.00 | 46 | 1019.4 |
| 20260506214535 | 73 | 280 | 0.0 | 0.0 | 0.00 | 0.00 | 0.00 | 46 | 1019.8 |
| 20260506214033 | 73 | 230 | 2.6 | 4.3 | 0.00 | 0.00 | 0.00 | 46 | 1019.7 |
| 20260506213531 | 72 | 347 | 2.6 | 4.3 | 0.00 | 0.00 | 0.00 | 46 | 1019.7 |
| 20260506213027 | 72 | 286 | 5.2 | 8.7 | 0.00 | 0.00 | 0.00 | 47 | 1019.8 |
| 20260506212524 | 71 | 10 | 5.2 | 7.8 | 0.00 | 0.00 | 0.00 | 48 | 1019.9 |
| 20260506212019 | 71 | 307 | 7.0 | 7.8 | 0.00 | 0.00 | 0.00 | 47 | 1020.1 |
| 20260506211515 | 72 | 278 | 6.1 | 8.7 | 0.00 | 0.00 | 0.00 | 47 | 1020.1 |
| 20260506211013 | 71 | 297 | 1.7 | 1.7 | 0.00 | 0.00 | 0.00 | 47 | 1020.1 |
| 20260506210509 | 71 | 300 | 7.8 | 8.7 | 0.00 | 0.00 | 0.00 | 47 | 1019.9 |
| 20260506210006 | 73 | 293 | 0.0 | 1.7 | 0.00 | 0.00 | 0.00 | 47 | 1020.1 |
| 20260506205501 | 71 | 283 | 1.7 | 1.7 | 0.00 | 0.00 | 0.00 | 47 | 1020.2 |
| 20260506204952 | 71 | 293 | 2.6 | 2.6 | 0.00 | 0.00 | 0.00 | 47 | 1020.3 |
| 20260506204450 | 72 | 272 | 0.0 | 0.0 | 0.00 | 0.00 | 0.00 | 45 | 1020.2 |
| 20260506203947 | 72 | 277 | 2.6 | 4.3 | 0.00 | 0.00 | 0.00 | 47 | 1020.1 |
| 20260506203444 | 71 | 229 | 3.5 | 7.0 | 0.00 | 0.00 | 0.00 | 47 | 1020.2 |
| 20260506202941 | 71 | 257 | 4.3 | 6.1 | 0.00 | 0.00 | 0.00 | 50 | 1020.4 |
| 20260506202439 | 70 | 269 | 3.5 | 5.2 | 0.00 | 0.00 | 0.00 | 49 | 1020.6 |
| 20260506201935 | 71 | 264 | 4.3 | 5.2 | 0.00 | 0.00 | 0.00 | 49 | 1020.3 |
| 20260506201433 | 69 | 272 | 3.5 | 4.3 | 0.00 | 0.00 | 0.00 | 49 | 1020.5 |
| 20260506200929 | 69 | 274 | 3.5 | 5.2 | 0.00 | 0.00 | 0.00 | 49 | 1020.5 |
| 20260506200425 | 70 | 268 | 1.7 | 2.6 | 0.00 | 0.00 | 0.00 | 49 | 1020.7 |
| 20260506195922 | 69 | 237 | 6.1 | 7.0 | 0.00 | 0.00 | 0.00 | 50 | 1020.7 |
| 20260506195419 | 70 | 294 | 0.0 | 0.0 | 0.00 | 0.00 | 0.00 | 50 | 1020.9 |
| 20260506194916 | 70 | 264 | 3.5 | 4.3 | 0.00 | 0.00 | 0.00 | 48 | 1021.2 |
| 20260506194413 | 71 | 271 | 3.5 | 4.3 | 0.00 | 0.00 | 0.00 | 48 | 1020.8 |
| 20260506193910 | 70 | 202 | 0.0 | 0.0 | 0.00 | 0.00 | 0.00 | 49 | 1020.8 |
| 20260506193407 | 69 | 261 | 3.5 | 4.3 | 0.00 | 0.00 | 0.00 | 51 | 1021.2 |
| 20260506192903 | 69 | 257 | 0.0 | 0.0 | 0.00 | 0.00 | 0.00 | 50 | 1021.2 |
| 20260506192400 | 69 | 259 | 4.3 | 5.2 | 0.00 | 0.00 | 0.00 | 53 | 1020.9 |
| 20260506191857 | 68 | 229 | 0.0 | 1.7 | 0.00 | 0.00 | 0.00 | 52 | 1021.2 |
| 20260506191353 | 67 | 239 | 4.3 | 5.2 | 0.00 | 0.00 | 0.00 | 53 | 1021.1 |
| 20260506190850 | 68 | 241 | 6.1 | 7.0 | 0.00 | 0.00 | 0.00 | 53 | 1021.2 |
| 20260506190346 | 68 | 239 | 3.5 | 4.3 | 0.00 | 0.00 | 0.00 | 53 | 1021.5 |
| 20260506185843 | 68 | 304 | 0.0 | 0.0 | 0.00 | 0.00 | 0.00 | 51 | 1021.3 |
| 20260506185340 | 68 | 197 | 1.7 | 1.7 | 0.00 | 0.00 | 0.00 | 53 | 1021.6 |
| 20260506184837 | 67 | 297 | 2.6 | 5.2 | 0.00 | 0.00 | 0.00 | 53 | 1021.7 |
| 20260506184335 | 66 | 281 | 0.0 | 0.0 | 0.00 | 0.00 | 0.00 | 55 | 1021.7 |
| 20260506183832 | 67 | 233 | 4.3 | 6.1 | 0.00 | 0.00 | 0.00 | 54 | 1021.7 |
| 20260506183327 | 68 | 317 | 0.0 | 0.0 | 0.00 | 0.00 | 0.00 | 55 | 1021.5 |
| 20260506182825 | 67 | 260 | 0.0 | 0.0 | 0.00 | 0.00 | 0.00 | 56 | 1021.7 |
| 20260506182321 | 66 | 278 | 0.9 | 1.7 | 0.00 | 0.00 | 0.00 | 55 | 1021.9 |
| 20260506181819 | 66 | 328 | 2.6 | 4.3 | 0.00 | 0.00 | 0.00 | 57 | 1021.8 |
| 20260506181317 | 66 | 296 | 0.9 | 1.7 | 0.00 | 0.00 | 0.00 | 59 | 1021.8 |
| 20260506180814 | 65 | 165 | 1.7 | 2.6 | 0.00 | 0.00 | 0.00 | 57 | 1021.6 |
| 20260506180310 | 64 | 333 | 0.9 | 1.7 | 0.00 | 0.00 | 0.00 | 60 | 1021.7 |
| 20260506175806 | 65 | 303 | 2.6 | 5.2 | 0.00 | 0.00 | 0.00 | 59 | 1021.7 |
| 20260506175306 | 66 | 299 | 0.0 | 0.0 | 0.00 | 0.00 | 0.00 | 57 | 1021.7 |
| 20260506174801 | 66 | 278 | 0.0 | 0.0 | 0.00 | 0.00 | 0.00 | 59 | 1021.7 |
| 20260506174258 | 63 | 219 | 0.9 | 1.7 | 0.00 | 0.00 | 0.00 | 61 | 1021.8 |
| 20260506173755 | 62 | 283 | 1.7 | 2.6 | 0.00 | 0.00 | 0.00 | 62 | 1021.9 |
| 20260506173252 | 62 | 348 | 2.6 | 2.6 | 0.00 | 0.00 | 0.00 | 62 | 1021.7 |
| 20260506172749 | 62 | 308 | 1.7 | 1.7 | 0.00 | 0.00 | 0.00 | 63 | 1021.7 |
| 20260506172245 | 63 | 306 | 0.0 | 0.0 | 0.00 | 0.00 | 0.00 | 62 | 1022.1 |
| 20260506171743 | 64 | 264 | 0.0 | 0.0 | 0.00 | 0.00 | 0.00 | 61 | 1021.9 |
| 20260506171240 | 63 | 163 | 0.0 | 0.9 | 0.00 | 0.00 | 0.00 | 61 | 1022.0 |
| 20260506170738 | 62 | 212 | 0.9 | 2.6 | 0.00 | 0.00 | 0.00 | 62 | 1022.0 |
| 20260506170234 | 61 | 234 | 0.0 | 0.9 | 0.00 | 0.00 | 0.00 | 64 | 1021.9 |
| 20260506165733 | 60 | 255 | 2.6 | 2.6 | 0.00 | 0.00 | 0.00 | 65 | 1022.0 |
| 20260506165229 | 60 | 241 | 2.6 | 2.6 | 0.00 | 0.00 | 0.00 | 65 | 1021.8 |
| 20260506164726 | 61 | 225 | 3.5 | 4.3 | 0.00 | 0.00 | 0.00 | 65 | 1022.0 |
| 20260506164223 | 60 | 298 | 0.0 | 0.0 | 0.00 | 0.00 | 0.00 | 65 | 1022.0 |
| 20260506163720 | 59 | 301 | 0.0 | 0.0 | 0.00 | 0.00 | 0.00 | 66 | 1021.9 |
| 20260506163215 | 59 | 76 | 0.0 | 0.9 | 0.00 | 0.00 | 0.00 | 67 | 1022.0 |
| 20260506162711 | 58 | 343 | 0.9 | 1.7 | 0.00 | 0.00 | 0.00 | 69 | 1021.9 |
| 20260506162209 | 59 | 332 | 0.0 | 0.0 | 0.00 | 0.00 | 0.00 | 68 | 1022.0 |
| 20260506161706 | 58 | 220 | 0.0 | 0.0 | 0.00 | 0.00 | 0.00 | 70 | 1021.8 |
| 20260506161203 | 58 | 216 | 0.0 | 0.0 | 0.00 | 0.00 | 0.00 | 69 | 1021.7 |
| 20260506160701 | 58 | 211 | 0.0 | 0.0 | 0.00 | 0.00 | 0.00 | 69 | 1021.8 |
| 20260506160157 | 58 | 184 | 0.0 | 0.0 | 0.00 | 0.00 | 0.00 | 70 | 1022.0 |
| 20260506155655 | 57 | 152 | 0.0 | 0.0 | 0.00 | 0.00 | 0.00 | 71 | 1021.8 |
| 20260506155152 | 57 | 175 | 0.0 | 0.0 | 0.00 | 0.00 | 0.00 | 71 | 1021.8 |
| 20260506153254 | 55 | 40 | 0.9 | 1.7 | 0.00 | 0.00 | 0.00 | 77 | 1021.6 |
| 20260506152751 | 55 | 69 | 0.9 | 2.6 | 0.00 | 0.00 | 0.00 | 77 | 1021.7 |
| 20260506152248 | 55 | 78 | 0.0 | 0.9 | 0.00 | 0.00 | 0.00 | 77 | 1021.7 |
| 20260506151747 | 55 | 91 | 0.0 | 0.0 | 0.00 | 0.00 | 0.00 | 79 | 1021.8 |
| 20260506151243 | 54 | 133 | 0.0 | 0.0 | 0.00 | 0.00 | 0.00 | 79 | 1021.8 |
| 20260506150740 | 54 | 131 | 3.5 | 4.3 | 0.00 | 0.00 | 0.00 | 79 | 1021.8 |
| 20260506150237 | 54 | 161 | 0.0 | 0.0 | 0.00 | 0.00 | 0.00 | 81 | 1021.7 |
| 20260506145734 | 54 | 145 | 3.5 | 4.3 | 0.00 | 0.00 | 0.00 | 80 | 1021.9 |
| 20260506145230 | 53 | 169 | 2.6 | 2.6 | 0.00 | 0.00 | 0.00 | 81 | 1021.6 |
| 20260506144728 | 53 | 83 | 0.9 | 0.9 | 0.00 | 0.00 | 0.00 | 82 | 1021.8 |
| 20260506144225 | 53 | 74 | 0.0 | 0.0 | 0.00 | 0.00 | 0.00 | 83 | 1021.9 |
| 20260506143722 | 52 | 128 | 0.0 | 0.0 | 0.00 | 0.00 | 0.00 | 84 | 1021.6 |
| 20260506143220 | 52 | 78 | 0.0 | 0.0 | 0.00 | 0.00 | 0.00 | 84 | 1021.5 |
| 20260506142718 | 52 | 81 | 0.0 | 0.0 | 0.00 | 0.00 | 0.00 | 84 | 1021.7 |
| 20260506142216 | 51 | 78 | 0.0 | 0.0 | 0.00 | 0.00 | 0.00 | 84 | 1021.7 |
| 20260506141714 | 51 | 82 | 0.0 | 0.0 | 0.00 | 0.00 | 0.00 | 85 | 1021.7 |
| 20260506141212 | 51 | 75 | 0.9 | 0.9 | 0.00 | 0.00 | 0.00 | 85 | 1021.8 |
| 20260506140709 | 50 | 74 | 0.0 | 0.0 | 0.00 | 0.00 | 0.00 | 86 | 1021.8 |
| 20260506140206 | 51 | 93 | 0.9 | 1.7 | 0.00 | 0.00 | 0.00 | 86 | 1021.6 |
| 20260506135703 | 50 | 86 | 0.0 | 0.0 | 0.00 | 0.00 | 0.00 | 87 | 1021.6 |
| 20260506135159 | 50 | 105 | 0.9 | 0.9 | 0.00 | 0.00 | 0.00 | 87 | 1021.5 |
| 20260506134656 | 50 | 95 | 0.0 | 0.9 | 0.00 | 0.00 | 0.00 | 88 | 1021.6 |
| 20260506134152 | 49 | 95 | 0.0 | 0.0 | 0.00 | 0.00 | 0.00 | 88 | 1021.7 |
| 20260506133649 | 49 | 126 | 0.0 | 0.0 | 0.00 | 0.00 | 0.00 | 89 | 1021.3 |
| 20260506133146 | 49 | 132 | 0.0 | 0.0 | 0.00 | 0.00 | 0.00 | 89 | 1021.4 |
| 20260506132643 | 49 | 157 | 0.0 | 0.0 | 0.00 | 0.00 | 0.00 | 89 | 1021.3 |
| 20260506132140 | 48 | 157 | 0.0 | 0.0 | 0.00 | 0.00 | 0.00 | 90 | 1021.2 |
| 20260506131638 | 48 | 157 | 0.0 | 0.0 | 0.00 | 0.00 | 0.00 | 90 | 1020.9 |
| 20260506131134 | 48 | 158 | 0.0 | 0.0 | 0.00 | 0.00 | 0.00 | 90 | 1021.3 |
| 20260506130631 | 48 | 158 | 0.0 | 0.0 | 0.00 | 0.00 | 0.00 | 90 | 1020.9 |
| 20260506130128 | 48 | 158 | 0.0 | 0.0 | 0.00 | 0.00 | 0.00 | 90 | 1020.9 |
| 20260506125626 | 48 | 158 | 0.0 | 0.0 | 0.00 | 0.00 | 0.00 | 90 | 1020.8 |
| 20260506125123 | 48 | 158 | 0.0 | 0.0 | 0.00 | 0.00 | 0.00 | 89 | 1020.8 |
| 20260506124621 | 48 | 158 | 0.0 | 0.0 | 0.00 | 0.00 | 0.00 | 89 | 1020.8 |
| 20260506124119 | 48 | 158 | 0.0 | 0.0 | 0.00 | 0.00 | 0.00 | 89 | 1020.8 |
| 20260506123616 | 48 | 159 | 0.0 | 0.0 | 0.00 | 0.00 | 0.00 | 89 | 1020.8 |
| 20260506123115 | 48 | 159 | 0.0 | 0.0 | 0.00 | 0.00 | 0.00 | 89 | 1020.8 |
| 20260506122611 | 48 | 158 | 0.0 | 0.0 | 0.00 | 0.00 | 0.00 | 89 | 1020.7 |
| 20260506122109 | 48 | 158 | 0.0 | 0.0 | 0.00 | 0.00 | 0.00 | 89 | 1020.8 |
| 20260506121607 | 48 | 158 | 0.0 | 0.0 | 0.00 | 0.00 | 0.00 | 89 | 1020.8 |
| 20260506121103 | 48 | 158 | 0.0 | 0.0 | 0.00 | 0.00 | 0.00 | 89 | 1021.1 |
| 20260506120601 | 48 | 158 | 0.0 | 0.0 | 0.00 | 0.00 | 0.00 | 89 | 1020.7 |
| 20260506120058 | 49 | 158 | 0.0 | 0.0 | 0.00 | 0.00 | 0.00 | 89 | 1020.8 |
| 20260506115556 | 49 | 158 | 0.0 | 0.0 | 0.00 | 0.00 | 0.00 | 88 | 1020.5 |
| 20260506115054 | 49 | 158 | 0.0 | 0.0 | 0.00 | 0.00 | 0.00 | 88 | 1020.6 |
| 20260506114551 | 49 | 158 | 0.0 | 0.0 | 0.00 | 0.00 | 0.00 | 88 | 1020.7 |
| 20260506114049 | 49 | 158 | 0.0 | 0.0 | 0.00 | 0.00 | 0.00 | 88 | 1020.7 |
| 20260506113547 | 49 | 159 | 0.0 | 0.0 | 0.00 | 0.00 | 0.00 | 88 | 1020.9 |
| 20260506113044 | 49 | 159 | 0.0 | 0.0 | 0.00 | 0.00 | 0.00 | 88 | 1020.7 |